Weather History for PAOM - July, 2013

Change the Weather History Date:

Sunday, July 7, 2013

  Actual Average Record
Temperature  
Mean Temperature 53 °F 52 °F  
Max Temperature 57 °F 59 °F 84 °F (2014)
Min Temperature 49 °F 46 °F 35 °F (1960)
Degree Days  
Heating Degree Days 12 13  
Month to date heating degree days 114 91  
Since 1 June heating degree days 590 607  
Since 1 July heating degree days 114 91  
Cooling Degree Days 0    
Month to date cooling degree days 0  
Year to date cooling degree days 7  
Since 1 June cooling degree days 7  
Growing Degree Days 2 (Base 50)    
Moisture  
Dew Point 49 °F    
Average Humidity 0    
Maximum Humidity 0    
Minimum Humidity 0    
Precipitation  
Precipitation 0.05 in 0.05 in 0.87 in (1951)
Month to date precipitation 1.23 0.34  
Year to date precipitation 8.01 5.46  
Snow  
Snow 0.00 in 0.00 in 0.00 in (2015)
Month to date snowfall 0.0 0.0  
Since 1 June snowfall 0.1 0.3  
Since 1 July snowfall 0.0 0.0  
Snow Depth 0.00 in    
Sea Level Pressure  
Sea Level Pressure 29.68 in    
Wind  
Wind Speed 4 mph (NW)    
Max Wind Speed 9 mph    
Max Gust Speed 12 mph    
Visibility 10 miles    
Events Rain    
T = Trace of Precipitation, MM = Missing Value Source: NWS Daily Summary

Daily Weather History Graph

Daily Weather History Graph

Search for Another Location

Airport or City:

Trip Planner

Search our weather history database for the weather conditions in past years. The results will help you decide how hot, cold, wet, or windy it might be!

Date:

Astronomy

Jul. 07, 2013 Rise Set
Actual Time 4:46 AM AKDT 1:24 AM AKDT
Civil Twilight Sun does not set Sun does not set
Nautical Twilight Sun does not set Sun does not set
Astronomical Twilight Sun does not set Sun does not set
Moon 5:23 AM AKDT (7/7) 11:55 PM AKDT (7/7)
Length of Visible Light 24h 00m
Length of Day
20h 38m
Waning Crescent, 0% of the Moon is Illuminated
Jul 7
Waning Crescent
Jul 7
New
Jul 15
First Quarter
Jul 22
Full
Jul 29
Last Quarter

Hourly Weather History & Observations

Time (AKDT) Temp. Dew Point Humidity Pressure Visibility Wind Dir Wind Speed Gust Speed Precip Events Conditions
12:53 AM 53.1 °F 50.0 °F 89% 29.69 in 10.0 mi Calm Calm - N/A   Mostly Cloudy
1:53 AM 51.1 °F 48.9 °F 92% 29.70 in 10.0 mi Calm Calm - 0.00 in Rain Light Rain
2:53 AM 51.1 °F 48.9 °F 92% 29.70 in 10.0 mi NNW 4.6 mph - 0.02 in Rain Light Rain
3:53 AM 50.0 °F 48.0 °F 93% 29.70 in 10.0 mi NW 4.6 mph - 0.00 in Rain Light Rain
4:28 AM 50.0 °F 48.2 °F 94% 29.70 in 10.0 mi Calm Calm - 0.00 in Rain Light Rain
4:53 AM 50.0 °F 48.0 °F 93% 29.70 in 10.0 mi North 3.5 mph - 0.01 in Rain Light Rain
5:53 AM 50.0 °F 46.9 °F 89% 29.70 in 10.0 mi NNW 4.6 mph - 0.00 in Rain Light Rain
6:53 AM 48.9 °F 46.9 °F 93% 29.69 in 10.0 mi Calm Calm - 0.01 in   Overcast
7:53 AM 48.9 °F 46.9 °F 93% 29.69 in 10.0 mi NW 4.6 mph - 0.00 in   Overcast
8:53 AM 50.0 °F 48.0 °F 93% 29.69 in 10.0 mi NNW 4.6 mph - N/A   Mostly Cloudy
9:53 AM 52.0 °F 46.9 °F 83% 29.69 in 10.0 mi NNW 5.8 mph - 0.00 in   Mostly Cloudy
10:53 AM 53.1 °F 48.0 °F 83% 29.68 in 10.0 mi North 3.5 mph - N/A   Mostly Cloudy
11:53 AM 54.0 °F 46.9 °F 77% 29.68 in 10.0 mi Calm Calm - 0.00 in   Mostly Cloudy
12:53 PM 54.0 °F 48.0 °F 80% 29.68 in 10.0 mi North 4.6 mph - 0.00 in Rain Light Rain
1:00 PM 53.6 °F 48.2 °F 82% 29.67 in 10.0 mi NNW 4.6 mph - 0.00 in Rain Light Rain
1:53 PM 55.0 °F 48.9 °F 80% 29.68 in 10.0 mi North 8.1 mph - 0.00 in Rain Light Rain
2:53 PM 55.0 °F 50.0 °F 83% 29.68 in 9.0 mi NNE 4.6 mph - 0.00 in Rain Light Rain
3:53 PM 55.0 °F 50.0 °F 83% 29.68 in 10.0 mi WSW 4.6 mph - 0.01 in Rain Light Rain
4:53 PM 55.0 °F 50.0 °F 83% 29.67 in 10.0 mi SW 5.8 mph - 0.00 in   Overcast
5:53 PM 55.9 °F 48.0 °F 75% 29.67 in 10.0 mi WSW 8.1 mph - N/A   Mostly Cloudy
6:53 PM 57.0 °F 48.9 °F 74% 29.67 in 10.0 mi WSW 8.1 mph - N/A   Overcast
7:20 PM 55.4 °F 51.8 °F 88% 29.66 in 10.0 mi NE 4.6 mph - 0.00 in Rain Light Rain
7:53 PM 55.0 °F 50.0 °F 83% 29.66 in 10.0 mi Calm Calm - 0.00 in Rain Light Rain
8:53 PM 55.9 °F 52.0 °F 87% 29.66 in 10.0 mi WSW 4.6 mph - 0.00 in   Overcast
9:53 PM 57.0 °F 48.9 °F 74% 29.66 in 10.0 mi NNW 4.6 mph - N/A   Overcast
10:53 PM 55.9 °F 50.0 °F 80% 29.65 in 10.0 mi Calm Calm - 0.00 in   Overcast
11:53 PM 55.0 °F 52.0 °F 89% 29.66 in 10.0 mi Calm Calm - N/A   Overcast